Location: San Pelegr�n
(42.1868°N, 0.0079°E)
Time: 14:46:03
(UTC+00:00)

Cosmos 1821 Rocket - Pass Details

Date: 24 January 2020
Orbit: 944 x 1005 km, 82.9° (Epoch: 22 February)

Event Time Altitude Azimuth Distance (km) Brightness Sun altitude
Rises 19:33:15 0° 192° (SSW) 3,716 7.2 -27.6°
Reaches altitude 10° 19:35:47 10° 195° (SSW) 2,767 6.5 -28.1°
Maximum altitude 19:42:08 71° 279° (W) 1,052 4.2 -29.3°
Drops below altitude 10° 19:48:27 10° 3° (N) 2,753 6.3 -30.4°
Sets 19:50:59 0° 6° (N) 3,697 7.0 -30.9°
